sat.trackr.live / text

‹ back to catalog

POLYTECH UNIVERSE-5

NORAD 61745 · 2024-199L

PAYLOAD ACTIVE UNKNOWN

§ Identity

Operator
Country
CIS
Launch date
2024-11-04
Launch site
VOSTO
Launch vehicle
Mass (kg)
RCS (m²)

External: N2YO · Heavens-Above · Gunter

§ Orbital elements

Epoch: 2026-05-25T04:18:22.265568Z

Period
92.37 min
Inclination
97.2998°
Eccentricity
0.0005297
Mean motion
15.58975243 rev/d
Perigee alt
387.0 km
Apogee alt
394.2 km
Semi-major
6,768.8 km
B*
6.3851e-4
RAAN
22.2408°
Arg perigee
21.2882°
Mean anomaly
338.8593°
Rev number
13,409

§ Raw data

POLYTECH UNIVERSE-51 61745U 24199L   26145.17942437  .00049756  00000+0  63851-3 0  99992 61745  97.2998  22.2408 0005297  21.2882 338.8593 15.58975243134098

JSON: /api/v1/satellites/61745 · /tle

For live sub-satellite position, see the globe view (requires WebGL).

§ Visibility from observer

Set your observer location to see the next 7 days of passes ≥ 10°. The values pass through the URL so the page stays shareable.

No JS? Fill the form by hand. The geolocation button needs JavaScript.